| time (UTC) | temp F | wind direction | speed knots | gust knots | rain 1hr in | rain 24hr in | rain mn in | humidity % | barometer mb |
| 20260906173418 | 76 | 147 | 1.7 | 2.6 | 0.00 | 0.00 | 0.00 | 80 | 1020.7 |
| 20260906172427 | 76 | 83 | 1.7 | 3.5 | 0.00 | 0.00 | 0.00 | 80 | 1020.7 |
| 20260906171417 | 75 | 129 | 1.7 | 3.5 | 0.00 | 0.00 | 0.00 | 81 | 1020.7 |
| 20260906170456 | 76 | 158 | 2.6 | 5.2 | 0.00 | 0.00 | 0.00 | 79 | 1020.9 |
| 20260906165417 | 77 | 140 | 1.7 | 3.5 | 0.00 | 0.00 | 0.00 | 78 | 1021.3 |
| 20260906164424 | 75 | 119 | 2.6 | 6.1 | 0.00 | 0.00 | 0.00 | 81 | 1021.1 |
| 20260906163418 | 75 | 144 | 1.7 | 3.5 | 0.00 | 0.00 | 0.00 | 83 | 1021.1 |
| 20260906162426 | 75 | 102 | 0.9 | 2.6 | 0.00 | 0.00 | 0.00 | 82 | 1021.0 |
| 20260906161447 | 75 | 152 | 1.7 | 3.5 | 0.00 | 0.00 | 0.00 | 84 | 1021.1 |
| 20260906160425 | 74 | 138 | 0.9 | 2.6 | 0.00 | 0.00 | 0.00 | 85 | 1021.2 |
| 20260906155417 | 74 | 146 | 1.7 | 3.5 | 0.00 | 0.00 | 0.00 | 85 | 1021.2 |
| 20260906154431 | 74 | 143 | 0.9 | 2.6 | 0.00 | 0.00 | 0.00 | 85 | 1021.1 |
| 20260906153423 | 72 | 163 | 2.6 | 3.5 | 0.00 | 0.00 | 0.00 | 88 | 1021.3 |
| 20260906152445 | 71 | 160 | 1.7 | 3.5 | 0.00 | 0.00 | 0.00 | 90 | 1021.5 |
| 20260906151421 | 71 | 172 | 3.5 | 6.1 | 0.00 | 0.00 | 0.00 | 91 | 1021.6 |
| 20260906150428 | 71 | 131 | 1.7 | 7.0 | 0.00 | 0.00 | 0.00 | 92 | 1021.5 |
| 20260906145450 | 70 | 144 | 4.3 | 7.0 | 0.00 | 0.00 | 0.00 | 93 | 1021.5 |
| 20260906144458 | 70 | 145 | 3.5 | 7.0 | 0.00 | 0.00 | 0.00 | 93 | 1021.3 |
| 20260906143424 | 70 | 153 | 0.9 | 1.7 | 0.00 | 0.00 | 0.00 | 93 | 1021.1 |
| 20260906142445 | 70 | 140 | 1.7 | 5.2 | 0.00 | 0.00 | 0.00 | 93 | 1021.5 |
| 20260906141523 | 70 | 194 | 0.0 | 0.9 | 0.00 | 0.00 | 0.00 | 94 | 1021.3 |
| 20260906140415 | 70 | 134 | 3.5 | 7.0 | 0.00 | 0.00 | 0.00 | 93 | 1021.2 |
| 20260906135423 | 69 | 131 | 2.6 | 5.2 | 0.00 | 0.00 | 0.00 | 94 | 1021.5 |
| 20260906134516 | 69 | 171 | 0.9 | 1.7 | 0.00 | 0.00 | 0.00 | 95 | 1021.1 |
| 20260906133423 | 70 | 129 | 1.7 | 5.2 | 0.00 | 0.00 | 0.00 | 95 | 1021.2 |
| 20260906132415 | 69 | 158 | 0.9 | 3.5 | 0.00 | 0.00 | 0.00 | 96 | 1020.7 |
| 20260906131422 | 69 | 141 | 0.9 | 1.7 | 0.00 | 0.00 | 0.00 | 96 | 1020.8 |
| 20260906130430 | 69 | 136 | 0.9 | 2.6 | 0.00 | 0.00 | 0.00 | 97 | 1020.7 |
| 20260906125421 | 69 | 131 | 0.0 | 1.7 | 0.00 | 0.00 | 0.00 | 97 | 1020.8 |
| 20260906124430 | 69 | 164 | 0.9 | 1.7 | 0.00 | 0.00 | 0.00 | 97 | 1020.7 |
| 20260906123423 | 68 | 145 | 0.0 | 1.7 | 0.00 | 0.00 | 0.00 | 98 | 1020.7 |
| 20260906122431 | 68 | 114 | 0.0 | 0.9 | 0.00 | 0.00 | 0.00 | 98 | 1020.6 |
| 20260906121422 | 68 | 0.0 | 0.0 | 0.00 | 0.00 | 0.00 | 97 | 1020.4 | |
| 20260906120428 | 68 | 0.0 | 0.0 | 0.00 | 0.00 | 0.00 | 97 | 1020.5 | |
| 20260906115453 | 68 | 0.0 | 0.0 | 0.00 | 0.00 | 0.00 | 97 | 1020.4 | |
| 20260906114430 | 68 | 0.0 | 0.0 | 0.00 | 0.00 | 0.00 | 97 | 1020.3 | |
| 20260906113423 | 68 | 182 | 0.0 | 0.9 | 0.00 | 0.00 | 0.00 | 97 | 1020.2 |
| 20260906112430 | 68 | 174 | 0.9 | 1.7 | 0.00 | 0.00 | 0.00 | 97 | 1020.0 |
| 20260906111422 | 69 | 173 | 0.9 | 0.9 | 0.00 | 0.00 | 0.00 | 97 | 1020.0 |
| 20260906110430 | 69 | 175 | 0.9 | 1.7 | 0.00 | 0.00 | 0.00 | 97 | 1019.9 |
| 20260906105422 | 69 | 0.0 | 0.0 | 0.00 | 0.00 | 0.00 | 97 | 1020.0 | |
| 20260906104429 | 69 | 173 | 0.9 | 2.6 | 0.00 | 0.00 | 0.00 | 97 | 1020.0 |
| 20260906103422 | 69 | 174 | 1.7 | 2.6 | 0.00 | 0.00 | 0.00 | 97 | 1020.0 |
| 20260906102430 | 69 | 182 | 0.0 | 0.9 | 0.00 | 0.00 | 0.00 | 97 | 1019.9 |
| 20260906101422 | 69 | 162 | 0.9 | 2.6 | 0.00 | 0.00 | 0.00 | 97 | 1019.9 |
| 20260906100430 | 69 | 162 | 0.0 | 2.6 | 0.00 | 0.00 | 0.00 | 97 | 1019.8 |
| 20260906095450 | 69 | 174 | 0.0 | 0.9 | 0.00 | 0.00 | 0.00 | 97 | 1019.4 |
| 20260906094428 | 69 | 158 | 0.0 | 1.7 | 0.00 | 0.00 | 0.00 | 97 | 1019.1 |
| 20260906093424 | 69 | 184 | 0.0 | 1.7 | 0.00 | 0.00 | 0.00 | 97 | 1019.2 |
| 20260906092415 | 69 | 147 | 0.0 | 1.7 | 0.00 | 0.00 | 0.00 | 97 | 1019.1 |
| 20260906091521 | 69 | 173 | 0.0 | 1.7 | 0.00 | 0.00 | 0.00 | 96 | 1019.1 |
| 20260906090458 | 69 | 148 | 1.7 | 2.6 | 0.00 | 0.00 | 0.00 | 96 | 1019.2 |
| 20260906085454 | 69 | 159 | 0.9 | 1.7 | 0.00 | 0.00 | 0.00 | 96 | 1019.1 |
| 20260906084416 | 70 | 118 | 0.0 | 0.9 | 0.00 | 0.00 | 0.00 | 95 | 1019.0 |
| 20260906083424 | 70 | 164 | 0.0 | 1.7 | 0.00 | 0.00 | 0.00 | 95 | 1019.0 |
| 20260906082516 | 70 | 83 | 0.0 | 0.9 | 0.00 | 0.00 | 0.00 | 95 | 1018.9 |
| 20260906081424 | 70 | 109 | 0.9 | 2.6 | 0.00 | 0.00 | 0.00 | 95 | 1018.9 |
| 20260906080416 | 70 | 151 | 0.9 | 1.7 | 0.00 | 0.00 | 0.00 | 94 | 1018.9 |
| 20260906075424 | 70 | 108 | 0.9 | 1.7 | 0.00 | 0.00 | 0.00 | 95 | 1018.9 |
| 20260906074416 | 70 | 119 | 0.0 | 0.9 | 0.00 | 0.00 | 0.00 | 94 | 1019.1 |
| 20260906073424 | 70 | 160 | 0.0 | 0.9 | 0.00 | 0.00 | 0.00 | 94 | 1019.2 |
| 20260906072416 | 70 | 0.0 | 0.0 | 0.00 | 0.00 | 0.00 | 94 | 1019.4 | |
| 20260906071424 | 71 | 175 | 0.0 | 0.9 | 0.00 | 0.00 | 0.00 | 93 | 1019.3 |
| 20260906070446 | 71 | 156 | 0.9 | 2.6 | 0.00 | 0.00 | 0.00 | 93 | 1019.6 |
| 20260906065423 | 71 | 171 | 0.0 | 1.7 | 0.00 | 0.00 | 0.00 | 93 | 1019.5 |
| 20260906064416 | 71 | 0.0 | 0.0 | 0.00 | 0.00 | 0.00 | 92 | 1019.3 | |
| 20260906063422 | 71 | 182 | 0.0 | 0.9 | 0.00 | 0.00 | 0.00 | 92 | 1019.4 |
| 20260906062431 | 72 | 167 | 0.0 | 1.7 | 0.00 | 0.00 | 0.00 | 92 | 1019.4 |
| 20260906061423 | 72 | 0.0 | 0.0 | 0.00 | 0.00 | 0.00 | 92 | 1019.5 | |
| 20260906060501 | 72 | 0.0 | 0.0 | 0.00 | 0.00 | 0.00 | 92 | 1019.6 | |
| 20260906055453 | 72 | 0.0 | 0.0 | 0.00 | 0.00 | 0.00 | 92 | 1019.4 | |
| 20260906054430 | 72 | 0.0 | 0.0 | 0.00 | 0.00 | 0.00 | 92 | 1019.3 | |
| 20260906053453 | 71 | 182 | 0.9 | 0.9 | 0.00 | 0.00 | 0.00 | 92 | 1019.4 |
| 20260906052415 | 72 | 165 | 0.9 | 1.7 | 0.00 | 0.00 | 0.00 | 91 | 1019.4 |
| 20260906051423 | 72 | 0.0 | 0.0 | 0.00 | 0.00 | 0.00 | 91 | 1019.6 | |
| 20260906050415 | 72 | 0.0 | 0.0 | 0.00 | 0.00 | 0.00 | 91 | 1019.6 | |
| 20260906045423 | 72 | 0.0 | 0.0 | 0.00 | 0.00 | 0.00 | 91 | 1019.6 | |
| 20260906044431 | 72 | 0.0 | 0.0 | 0.00 | 0.00 | 0.00 | 91 | 1019.7 | |
| 20260906043453 | 72 | 0.0 | 0.0 | 0.00 | 0.00 | 0.00 | 92 | 1019.8 | |
| 20260906042445 | 71 | 0.0 | 0.0 | 0.00 | 0.00 | 0.00 | 92 | 1019.8 | |
| 20260906041423 | 71 | 0.0 | 0.0 | 0.00 | 0.00 | 0.00 | 91 | 1019.8 | |
| 20260906040415 | 71 | 0.0 | 0.0 | 0.00 | 0.00 | 0.00 | 91 | 1019.9 | |
| 20260906035423 | 71 | 0.0 | 0.0 | 0.00 | 0.00 | 0.00 | 91 | 1019.9 | |
| 20260906034500 | 71 | 0.0 | 0.0 | 0.00 | 0.00 | 0.00 | 91 | 1019.9 | |
| 20260906033423 | 71 | 0.0 | 0.0 | 0.00 | 0.00 | 0.00 | 90 | 1019.9 | |
| 20260906032415 | 72 | 0.0 | 0.0 | 0.00 | 0.00 | 0.00 | 89 | 1019.7 | |
| 20260906031453 | 73 | 0.0 | 0.0 | 0.00 | 0.00 | 0.00 | 88 | 1019.8 | |
| 20260906030459 | 73 | 0.0 | 0.0 | 0.00 | 0.00 | 0.00 | 87 | 1019.8 | |
| 20260906025453 | 73 | 0.0 | 0.0 | 0.00 | 0.00 | 0.00 | 87 | 1019.9 | |
| 20260906024446 | 73 | 206 | 0.0 | 0.9 | 0.00 | 0.00 | 0.00 | 87 | 1019.9 |
| 20260906023423 | 73 | 0.0 | 0.0 | 0.00 | 0.00 | 0.00 | 86 | 1019.6 | |
| 20260906022415 | 74 | 0.0 | 0.0 | 0.00 | 0.00 | 0.00 | 85 | 1019.2 | |
| 20260906021423 | 73 | 184 | 0.0 | 0.9 | 0.00 | 0.00 | 0.00 | 85 | 1019.2 |
| 20260906020415 | 73 | 0.0 | 0.0 | 0.00 | 0.00 | 0.00 | 84 | 1019.1 | |
| 20260906015423 | 74 | 0.0 | 0.0 | 0.00 | 0.00 | 0.00 | 82 | 1018.7 | |
| 20260906014415 | 75 | 188 | 0.0 | 0.9 | 0.00 | 0.00 | 0.00 | 82 | 1018.3 |
| 20260906013423 | 75 | 176 | 0.0 | 0.9 | 0.00 | 0.00 | 0.00 | 81 | 1018.1 |
| 20260906012415 | 76 | 149 | 1.7 | 3.5 | 0.00 | 0.00 | 0.00 | 81 | 1017.9 |
| 20260906011423 | 76 | 141 | 0.9 | 1.7 | 0.00 | 0.00 | 0.00 | 82 | 1017.7 |
| 20260906010422 | 77 | 137 | 2.6 | 5.2 | 0.00 | 0.00 | 0.00 | 81 | 1017.8 |
| 20260906005430 | 77 | 167 | 2.6 | 7.0 | 0.00 | 0.00 | 0.00 | 80 | 1017.6 |
| 20260906004422 | 78 | 156 | 1.7 | 5.2 | 0.00 | 0.00 | 0.00 | 79 | 1017.3 |
| 20260906003500 | 79 | 147 | 1.7 | 3.5 | 0.00 | 0.00 | 0.00 | 77 | 1017.1 |
| 20260906002422 | 80 | 155 | 0.9 | 2.6 | 0.00 | 0.00 | 0.00 | 74 | 1017.1 |
| 20260906001430 | 80 | 139 | 1.7 | 3.5 | 0.00 | 0.00 | 0.00 | 73 | 1017.3 |
| 20260906000422 | 81 | 148 | 0.9 | 2.6 | 0.00 | 0.00 | 0.00 | 71 | 1017.2 |
| 20260905235428 | 81 | 147 | 0.9 | 3.5 | 0.00 | 0.00 | 0.00 | 70 | 1016.9 |
| 20260905234420 | 82 | 139 | 1.7 | 5.2 | 0.00 | 0.00 | 0.00 | 68 | 1016.9 |
| 20260905233429 | 83 | 157 | 0.9 | 2.6 | 0.00 | 0.00 | 0.00 | 67 | 1016.7 |
| 20260905232420 | 83 | 76 | 1.7 | 2.6 | 0.00 | 0.00 | 0.00 | 66 | 1016.6 |
| 20260905231423 | 84 | 68 | 1.7 | 2.6 | 0.00 | 0.00 | 0.00 | 65 | 1016.7 |
| 20260905230415 | 84 | 102 | 0.9 | 2.6 | 0.00 | 0.00 | 0.00 | 64 | 1016.5 |
| 20260905225453 | 85 | 81 | 1.7 | 2.6 | 0.00 | 0.00 | 0.00 | 63 | 1016.3 |
| 20260905224431 | 85 | 92 | 1.7 | 3.5 | 0.00 | 0.00 | 0.00 | 63 | 1016.3 |
| 20260905223423 | 85 | 86 | 1.7 | 2.6 | 0.00 | 0.00 | 0.00 | 63 | 1016.5 |
| 20260905222415 | 86 | 95 | 0.9 | 3.5 | 0.00 | 0.00 | 0.00 | 63 | 1016.6 |
| 20260905221423 | 86 | 81 | 1.7 | 1.7 | 0.00 | 0.00 | 0.00 | 63 | 1016.6 |
| 20260905220445 | 85 | 131 | 0.9 | 2.6 | 0.00 | 0.00 | 0.00 | 62 | 1016.6 |
| 20260905215423 | 84 | 76 | 1.7 | 5.2 | 0.00 | 0.00 | 0.00 | 64 | 1016.4 |
| 20260905214430 | 84 | 78 | 2.6 | 5.2 | 0.00 | 0.00 | 0.00 | 65 | 1016.6 |
| 20260905213423 | 84 | 95 | 1.7 | 3.5 | 0.00 | 0.00 | 0.00 | 65 | 1016.8 |
| 20260905212415 | 84 | 74 | 2.6 | 3.5 | 0.00 | 0.00 | 0.00 | 66 | 1016.8 |
| 20260905211423 | 84 | 86 | 1.7 | 3.5 | 0.00 | 0.00 | 0.00 | 66 | 1016.7 |
| 20260905210445 | 84 | 66 | 1.7 | 3.5 | 0.00 | 0.00 | 0.00 | 68 | 1016.8 |
| 20260905205422 | 84 | 74 | 1.7 | 3.5 | 0.00 | 0.00 | 0.00 | 67 | 1017.4 |
| 20260905204430 | 83 | 97 | 1.7 | 2.6 | 0.00 | 0.00 | 0.00 | 69 | 1017.7 |
| 20260905203422 | 82 | 93 | 1.7 | 1.7 | 0.00 | 0.00 | 0.00 | 71 | 1017.9 |
| 20260905202446 | 82 | 116 | 0.9 | 2.6 | 0.00 | 0.00 | 0.00 | 71 | 1018.0 |
| 20260905201423 | 82 | 92 | 0.9 | 1.7 | 0.00 | 0.00 | 0.00 | 70 | 1018.2 |
| 20260905200415 | 82 | 177 | 0.0 | 0.9 | 0.00 | 0.00 | 0.00 | 70 | 1018.4 |
| 20260905195423 | 83 | 95 | 0.9 | 2.6 | 0.00 | 0.00 | 0.00 | 71 | 1018.5 |
| 20260905194430 | 83 | 154 | 1.7 | 5.2 | 0.00 | 0.00 | 0.00 | 70 | 1018.7 |
| 20260905193422 | 82 | 159 | 2.6 | 3.5 | 0.00 | 0.00 | 0.00 | 70 | 1018.7 |
| 20260905192416 | 82 | 149 | 2.6 | 6.1 | 0.00 | 0.00 | 0.00 | 71 | 1018.8 |
| 20260905191424 | 82 | 178 | 0.9 | 1.7 | 0.00 | 0.00 | 0.00 | 70 | 1018.7 |
| 20260905190416 | 82 | 153 | 0.9 | 2.6 | 0.00 | 0.00 | 0.00 | 73 | 1018.8 |
| 20260905185424 | 82 | 154 | 0.9 | 1.7 | 0.00 | 0.00 | 0.00 | 72 | 1018.8 |
| 20260905184416 | 81 | 185 | 1.7 | 2.6 | 0.00 | 0.00 | 0.00 | 75 | 1018.9 |
| 20260905183424 | 81 | 132 | 0.0 | 0.9 | 0.00 | 0.00 | 0.00 | 74 | 1018.8 |
| 20260905182446 | 81 | 168 | 2.6 | 5.2 | 0.00 | 0.00 | 0.00 | 74 | 1019.0 |
| 20260905181424 | 80 | 0.0 | 0.0 | 0.00 | 0.00 | 0.00 | 77 | 1019.0 | |
| 20260905180416 | 78 | 152 | 0.0 | 0.9 | 0.00 | 0.00 | 0.00 | 80 | 1018.8 |
| 20260905175423 | 78 | 0.0 | 0.0 | 0.00 | 0.00 | 0.00 | 80 | 1019.2 | |
| 20260905174416 | 79 | 118 | 0.9 | 1.7 | 0.00 | 0.00 | 0.00 | 80 | 1019.5 |